Eleonora E — MEDD4 — position and weather

sailwx.info

Track history (hours):
 
Tides and Currents Weather Stations Pressure Air Temp Water Temp Dewpoint Dewpoint Depression Visibility Wind Speed Wind Dir Waves Ship Positions

Eleonora E

Last reported at 2015-Aug-31 13:33 UTC. Time now 2015-Sep-04 21:05 UTC.
Position N 43°38' E 007°20'.

Length 41 m; draft 5.2 m.

Type: Sailing vessel. MMSI: 235008680.

Date/timePositionNaut miles runAvg speedWind from/ knotsBaromVisibWave heightAir tempDewpointWater temp
2015-Aug-31 13:33N 43°38' E 007°20'10 9.4
2015-Aug-31 12:28N 43°32' E 007°08'9 9.7
2015-Aug-31 11:32N 43°27' E 006°58'9 9.5
2015-Aug-31 10:33N 43°22' E 006°48'9 3.0
2015-Aug-31 07:33N 43°16' E 006°38'0 0.0
2015-Aug-31 06:33N 43°16' E 006°38'0 0.0
2015-Aug-31 05:30N 43°16' E 006°38'0 0.0
2015-Aug-31 04:33N 43°16' E 006°38'0 0.0
2015-Aug-31 03:32N 43°16' E 006°38'0 0.0
2015-Aug-31 02:33N 43°16' E 006°38'0 0.0
2015-Aug-31 01:33N 43°16' E 006°38'0 0.0
2015-Aug-31 00:33N 43°16' E 006°38'0 0.0
2015-Aug-30 23:33N 43°16' E 006°38'0 0.0
2015-Aug-30 22:33N 43°16' E 006°38'0 0.0
2015-Aug-30 21:33N 43°16' E 006°38'0 0.0
2015-Aug-30 20:33N 43°16' E 006°38'0 0.0
2015-Aug-30 19:33N 43°16' E 006°38'0 0.0
2015-Aug-30 18:33N 43°16' E 006°38'0 0.0
2015-Aug-30 17:33N 43°16' E 006°38'0 0.0
2015-Aug-30 16:27N 43°16' E 006°38'0 0.0
2015-Aug-30 15:32N 43°16' E 006°38'1 1.2
2015-Aug-30 14:33N 43°17' E 006°39'2 2.4
2015-Aug-30 13:33N 43°19' E 006°40'0 0.0
2015-Aug-30 12:33N 43°19' E 006°40'0 0.0
2015-Aug-30 11:33N 43°19' E 006°40'2 1.8
2015-Aug-30 10:33N 43°20' E 006°42'11 9.1
2015-Aug-30 09:24N 43°25' E 006°55'13 0.6
2015-Aug-29 11:29N 43°33' E 007°09'9 9.7
2015-Aug-29 10:33N 43°40' E 007°17'45 2.0
2015-Aug-28 12:23N 43°56' E 008°15'810.1
2015-Aug-28 11:34N 43°59' E 008°25'10 9.9
2015-Aug-28 10:33N 44°04' E 008°38'10 9.6
2015-Aug-28 09:29N 44°08' E 008°50'10 9.7
2015-Aug-28 08:25N 44°13' E 009°03'9 0.4
2015-Aug-27 12:32N 44°18' E 009°13'0 0.0
2015-Aug-27 11:32N 44°18' E 009°13'0 0.0
2015-Aug-27 09:25N 44°18' E 009°13'0 0.0
2015-Aug-26 13:18N 44°18' E 009°13'0 0.5
2015-Aug-26 12:24N 44°18' E 009°13'7 8.4
2015-Aug-26 11:34N 44°14' E 009°20'10 9.5
2015-Aug-26 10:33N 44°08' E 009°31'9 9.3
2015-Aug-26 09:33N 44°03' E 009°42'13 0.6
2015-Aug-25 13:27N 43°52' E 009°51'7 7.4
2015-Aug-25 12:34N 43°46' E 009°50'  
2015-Aug-22 10:24N 43°02' E 007°13'8 9.0
2015-Aug-22 09:33N 43°06' E 007°04'12 9.3
2015-Aug-22 08:17N 43°12' E 006°51'7 9.0
2015-Aug-22 07:28N 43°17' E 006°43'4 3.9
2015-Aug-22 06:29N 43°16' E 006°37'0 0.0
2015-Aug-22 05:33N 43°16' E 006°37'0 0.0
2015-Aug-22 04:33N 43°16' E 006°37'0 0.0
2015-Aug-22 03:33N 43°16' E 006°37'0 0.0
2015-Aug-22 02:33N 43°16' E 006°37'0 0.0
2015-Aug-22 01:29N 43°16' E 006°37'0 0.0
2015-Aug-22 00:33N 43°16' E 006°37'0 0.0
2015-Aug-21 23:33N 43°16' E 006°37'0 0.0
2015-Aug-21 22:32N 43°16' E 006°37'0 0.0
2015-Aug-21 21:33N 43°16' E 006°37'0 0.0
2015-Aug-21 20:33N 43°16' E 006°37'0 0.0
2015-Aug-21 19:24N 43°16' E 006°37'0 0.0
2015-Aug-21 18:29N 43°16' E 006°37'0 0.0
2015-Aug-21 17:33N 43°16' E 006°37'0 0.0
2015-Aug-21 16:27N 43°16' E 006°37'0 0.0
2015-Aug-21 15:33N 43°16' E 006°37'0 0.0
2015-Aug-21 14:32N 43°16' E 006°37'  
Track history (hours):
 
Tides and Currents Weather Stations Pressure Air Temp Water Temp Dewpoint Dewpoint Depression Visibility Wind Speed Wind Dir Waves Ship Positions

Eleonora E

Last reported at 2015-Aug-31 13:33 UTC. Time now 2015-Sep-04 21:05 UTC.
Position N 43°38' E 007°20'.

Length 41 m; draft 5.2 m.

Type: Sailing vessel. MMSI: 235008680.

Date/timePositionNaut miles runAvg speedWind from/ knotsBaromVisibWave heightAir tempDewpointWater temp
2015-Aug-31 13:33N 43°38' E 007°20'10 9.4
2015-Aug-31 12:28N 43°32' E 007°08'9 9.7
2015-Aug-31 11:32N 43°27' E 006°58'9 9.5
2015-Aug-31 10:33N 43°22' E 006°48'9 3.0
2015-Aug-31 07:33N 43°16' E 006°38'0 0.0
2015-Aug-31 06:33N 43°16' E 006°38'0 0.0
2015-Aug-31 05:30N 43°16' E 006°38'0 0.0
2015-Aug-31 04:33N 43°16' E 006°38'0 0.0
2015-Aug-31 03:32N 43°16' E 006°38'0 0.0
2015-Aug-31 02:33N 43°16' E 006°38'0 0.0
2015-Aug-31 01:33N 43°16' E 006°38'0 0.0
2015-Aug-31 00:33N 43°16' E 006°38'0 0.0
2015-Aug-30 23:33N 43°16' E 006°38'0 0.0
2015-Aug-30 22:33N 43°16' E 006°38'0 0.0
2015-Aug-30 21:33N 43°16' E 006°38'0 0.0
2015-Aug-30 20:33N 43°16' E 006°38'0 0.0
2015-Aug-30 19:33N 43°16' E 006°38'0 0.0
2015-Aug-30 18:33N 43°16' E 006°38'0 0.0
2015-Aug-30 17:33N 43°16' E 006°38'0 0.0
2015-Aug-30 16:27N 43°16' E 006°38'0 0.0
2015-Aug-30 15:32N 43°16' E 006°38'1 1.2
2015-Aug-30 14:33N 43°17' E 006°39'2 2.4
2015-Aug-30 13:33N 43°19' E 006°40'0 0.0
2015-Aug-30 12:33N 43°19' E 006°40'0 0.0
2015-Aug-30 11:33N 43°19' E 006°40'2 1.8
2015-Aug-30 10:33N 43°20' E 006°42'11 9.1
2015-Aug-30 09:24N 43°25' E 006°55'13 0.6
2015-Aug-29 11:29N 43°33' E 007°09'9 9.7
2015-Aug-29 10:33N 43°40' E 007°17'45 2.0
2015-Aug-28 12:23N 43°56' E 008°15'810.1
2015-Aug-28 11:34N 43°59' E 008°25'10 9.9
2015-Aug-28 10:33N 44°04' E 008°38'10 9.6
2015-Aug-28 09:29N 44°08' E 008°50'10 9.7
2015-Aug-28 08:25N 44°13' E 009°03'9 0.4
2015-Aug-27 12:32N 44°18' E 009°13'0 0.0
2015-Aug-27 11:32N 44°18' E 009°13'0 0.0
2015-Aug-27 09:25N 44°18' E 009°13'0 0.0
2015-Aug-26 13:18N 44°18' E 009°13'0 0.5
2015-Aug-26 12:24N 44°18' E 009°13'7 8.4
2015-Aug-26 11:34N 44°14' E 009°20'10 9.5
2015-Aug-26 10:33N 44°08' E 009°31'9 9.3
2015-Aug-26 09:33N 44°03' E 009°42'13 0.6
2015-Aug-25 13:27N 43°52' E 009°51'7 7.4
2015-Aug-25 12:34N 43°46' E 009°50'  
2015-Aug-22 10:24N 43°02' E 007°13'8 9.0
2015-Aug-22 09:33N 43°06' E 007°04'12 9.3
2015-Aug-22 08:17N 43°12' E 006°51'7 9.0
2015-Aug-22 07:28N 43°17' E 006°43'4 3.9
2015-Aug-22 06:29N 43°16' E 006°37'0 0.0
2015-Aug-22 05:33N 43°16' E 006°37'0 0.0
2015-Aug-22 04:33N 43°16' E 006°37'0 0.0
2015-Aug-22 03:33N 43°16' E 006°37'0 0.0
2015-Aug-22 02:33N 43°16' E 006°37'0 0.0
2015-Aug-22 01:29N 43°16' E 006°37'0 0.0
2015-Aug-22 00:33N 43°16' E 006°37'0 0.0
2015-Aug-21 23:33N 43°16' E 006°37'0 0.0
2015-Aug-21 22:32N 43°16' E 006°37'0 0.0
2015-Aug-21 21:33N 43°16' E 006°37'0 0.0
2015-Aug-21 20:33N 43°16' E 006°37'0 0.0
2015-Aug-21 19:24N 43°16' E 006°37'0 0.0
2015-Aug-21 18:29N 43°16' E 006°37'0 0.0
2015-Aug-21 17:33N 43°16' E 006°37'0 0.0
2015-Aug-21 16:27N 43°16' E 006°37'0 0.0
2015-Aug-21 15:33N 43°16' E 006°37'0 0.0
2015-Aug-21 14:32N 43°16' E 006°37'  

Dump ship's entire track history